Tracking 22124 objects as of 23-Jan-2021
HD Live streaming from Space Station
objects crossing your sky now

SATCOM 3

Track SATCOM 3 now!
SATCOM 3 is classified as:


NORAD ID: 11635
Int'l Code: 1979-101A
Perigee: 8,331.3 km
Apogee: 35,491.4 km
Inclination: 8.9 °
Period: 788.9 minutes
Semi major axis: 28282 km
RCS: 6.1128 m2 (large)
Launch date: December 7, 1979
Source: United States (US)
Launch site: AIR FORCE EASTERN TEST RANGE (AFETR)
aabbcc
Your satellite tracking list
Your tracking list is empty




NASA's NSSDC Master Catalog

Two Line Element Set (TLE):
1 11635U 79101A   21023.58098470 -.00000047  00000-0  00000-0 0  9995
2 11635   8.8546 285.3113 4801604  85.2453  66.2377  1.82528159187998
Source of the keplerian elements: AFSPC